This is the latest recevied weather packets stored in our database for station/object W4MLN-1. If no packets are shown the sender has not sent any weather packets the latest 10 day(s).
| Time | Temp. | Humidity | Pressure | Rain* | Wind** | Luminosity | Snow |
|---|---|---|---|---|---|---|---|
| 1777934396 | 20° C | 45% | 1013.3 hPa | 0 mm | - | 186 W/m² | - |
| 1777934096 | 20° C | 46% | 1013.4 hPa | 0 mm | - | 110 W/m² | - |
| 1777933796 | 20° C | 46% | 1013.4 hPa | 0 mm | - | 99 W/m² | - |
| 1777933495 | 20° C | 46% | 1013.3 hPa | 0 mm | - | 105 W/m² | - |
| 1777933196 | 20.56° C | 47% | 1013.3 hPa | 0 mm | - | 107 W/m² | - |
| 1777932896 | 20.56° C | 46% | 1013.3 hPa | 0 mm | - | 305 W/m² | - |
| 1777932596 | 21.11° C | 45% | 1013.4 hPa | 0 mm | - | 294 W/m² | - |
| 1777932297 | 21.11° C | 45% | 1013.3 hPa | 0 mm | - | 391 W/m² | - |
| 1777931996 | 21.67° C | 46% | 1013.4 hPa | 0 mm | - | 404 W/m² | - |
| 1777931694 | 21.67° C | 45% | 1013.3 hPa | 0 mm | - | 411 W/m² | - |
| 1777931393 | 21.67° C | 44% | 1013.4 hPa | 0 mm | - | 461 W/m² | - |
| 1777931094 | 22.22° C | 44% | 1013.3 hPa | 0 mm | - | 461 W/m² | - |
| 1777930793 | 22.22° C | 45% | 1013.4 hPa | 0 mm | - | 457 W/m² | - |
| 1777930494 | 21.67° C | 45% | 1013.3 hPa | 0 mm | - | 481 W/m² | - |
| 1777930194 | 22.22° C | 46% | 1013.4 hPa | 0 mm | - | 495 W/m² | - |
| 1777929894 | 22.22° C | 46% | 1013.4 hPa | 0 mm | - | 531 W/m² | - |
| 1777929595 | 21.67° C | 46% | 1013.4 hPa | 0 mm | - | 539 W/m² | - |
| 1777929294 | 21.67° C | 47% | 1013.4 hPa | 0 mm | - | 558 W/m² | - |
| 1777928995 | 21.67° C | 47% | 1013.5 hPa | 0 mm | - | 563 W/m² | - |
| 1777928694 | 21.67° C | 46% | 1013.5 hPa | 0 mm | - | 578 W/m² | - |
| 1777928392 | 21.67° C | 48% | 1013.4 hPa | 0 mm | - | 589 W/m² | - |
| 1777928092 | 21.67° C | 49% | 1013.5 hPa | 0 mm | - | 606 W/m² | - |
| 1777927792 | 21.11° C | 48% | 1013.6 hPa | 0 mm | - | 619 W/m² | - |
| 1777927492 | 20.56° C | 49% | 1013.6 hPa | 0 mm | - | 639 W/m² | - |
| 1777927192 | 20.56° C | 48% | 1013.7 hPa | 0 mm | - | 647 W/m² | - |
* Rain latest hour (hover to see other rain measurements)
** Current wind speed in m/s (hover to see current wind gust speed)